User: anonymous   Login
Location: ??????????
(48.4699°N, 37.9573°E)
Time: 03:02:52
(UTC+00:00)
Language:

Cosmos 2228 - Orbit

View from above orbital plane
View from above orbital plane
View from above satellite
View from above satellite

Ground track
Ground track

The orbit data is extracted from the following two-line orbital elements,

1 22286U 92094A   21102.51501511  .00000227  00000-0  21782-4 0  9994
2 22286  82.5182 137.6593 0021555 163.5717 196.6204 14.88257271508927
Epoch (UTC): 12 April 2021 12:21:37
Eccentricity: 0.0021555
inclination: 82.5182°
perigee height: 588 km
apogee height: 618 km
right ascension of ascending node: 137.6593°
argument of perigee: 163.5717°
revolutions per day: 14.88257271
mean anomaly at epoch: 196.6204°
orbit number at epoch: 50892

The dashed part of the orbit path shows where the satellite is in the earth's shadow,  

DLR